Retour au catalogue

COSMOS 1086

ActifMilitaireLEO
NORAD 11301·PAYLOAD·🇷🇺 Russia

Lancé Mar 15, 1979 depuis Plesetsk Cosmodrome

Loading…

Prochains Passages (prochaines 24 heures)

TLE

FraisSource: Space-Track

Époque: Sep 14, 2026, 14:29 UTC

1 11301U 79024F   26257.60404300 -.00000003  00000-0  83704-4 0  9997
2 11301  74.0346 310.2218 0010985 223.3067 291.2641 12.47884691163808

Suivez COSMOS 1086 en temps réel avec AllMySat

Download on the App Store